User: anonymous   Login
Location: Holcomb Observatory
(44.4922°N, 73.1654°W)
Time: 10:13:41
(UTC-05:00)
Language:

SL-16 R/B - Orbit

View from above orbital plane
View from above orbital plane
View from above satellite
View from above satellite

Ground track
Ground track

The orbit data is extracted from the following two-line orbital elements,

1 27006U 01056F   14355.12483505  .00000042  00000-0  93722-4 0  3204
2 27006 099.1822 154.6042 0015108 160.4361 329.9729 13.70935394651935
Epoch (UTC): 21 December 2014 02:59:45
Eccentricity: 0.0015108
inclination: 99.1822°
perigee height: 985 km
apogee height: 1007 km
right ascension of ascending node: 154.6042°
argument of perigee: 160.4361°
revolutions per day: 13.70935394
mean anomaly at epoch: 329.9729°
orbit number at epoch: 65193

The dashed part of the orbit path shows where the satellite is in the earth's shadow,  

DLR